User: anonymous   Login
Location: Unspecified
(0.0000°N, 0.0000°E)
Time: 06:13:58
(UTC+00:00)
Language:

MOST - Orbit

View from above orbital plane
View from above orbital plane
View from above satellite
View from above satellite

Ground track
Ground track

The orbit data is extracted from the following two-line orbital elements,

1 27843U 03031D   18203.60583484 -.00000020 +00000-0 +11284-4 0  9996
2 27843 098.7118 210.9983 0009010 303.7751 056.2567 14.20571529780808
Epoch (UTC): 22 July 2018 14:32:24
Eccentricity: 0.0009010
inclination: 98.7118°
perigee height: 817 km
apogee height: 830 km
right ascension of ascending node: 210.9983°
argument of perigee: 303.7751°
revolutions per day: 14.20571529
mean anomaly at epoch: 56.2567°
orbit number at epoch: 78080

The dashed part of the orbit path shows where the satellite is in the earth's shadow,  

DLR